Location: Dampvalley
(47.9094°N, 6.1967°E)
Time: 05:25:57
(UTC+00:00)

AO-109 - Pass Details

Date: 01 December 2021
Orbit: 479 x 514 km, 60.7° (Epoch: 28 January)

Event Time Altitude Azimuth Distance (km) Brightness Sun altitude
Exits shadow 05:44:17 16° 323° (NW) 1,310 ? -12.8°
Maximum altitude 05:47:05 61° 41° (NE) 549 ? -12.4°
Drops below altitude 10° 05:50:44 10° 123° (ESE) 1,652 ? -11.8°
Sets 05:52:54 0° 127° (SE) 2,530 ? -11.4°
